Grand Junction, CO (81501)

11:29 AM MDT on August 28, 2015 (GMT -0600)
Chipeta Ave south of Washington Park | | Change Station
CLOSE
Current Station
Personal Weather Station
Location: Grand Junction, CO
Elevation: 4603 ft
Nearby Weather Stations

Elev 4603 ft 39.07 °N, 108.56 °W | Updated 18 seconds ago

Clear
Clear
75.8 °F
Feels Like 78 °F
N
5.0
Wind Variable Wind from SSE
Gusts 6.0 mph

Today
High -- | Low -- °F
--% Chance of Precip.
Yesterday
High -- | Low -- °F
Precip. -- in
6:39 AM 7:51 PM
Waxing Gibbous, 98% visible
Pressure 30.13 in
Visibility 10.0 miles
Clouds Clear
Heat Index 78 °F
Dew Point 56 °F
Humidity 50%
Rainfall 0.00 in
Snow Depth Not available.
UV 7 out of 12
Pollen 9.40 out of 12
Air Quality Not available.
Flu Activity Not available.
METAR KGJT 281653Z 13010KT 10SM CLR 22/11 A3030 RMK AO2 SLP202 T02170111
Pressure 30.13 in
Visibility 10.0 miles
Clouds Clear
Heat Index 78 °F
Dew Point 56 °F
Humidity 50%
Rainfall 0.00 in
Snow Depth Not available.
UV 7 out of 12
Pollen 9.40 out of 12
Air Quality Not available.
Flu Activity Not available.
METAR KGJT 281653Z 13010KT 10SM CLR 22/11 A3030 RMK AO2 SLP202 T02170111

10-Day Weather Forecast

×

Almanac

Astronomy

Aug. 28, 2015 Rise Set
Actual Time
Civil Twilight
Nautical Twilight
Astronomical Twilight
Moon
Length of Visible Light
Length of Day
Tomorrow will be .
, % of the Moon is Illuminated

Today's Extremes

State Highs State Lows

Community

WunderPhotos

Upload Photos

1,850,439 photos uploaded!

WunderBlogs® & News

Nearby

Air Quality

  Air Quality AQ Index Pollutant
Not available.

Snow Depth

Station Depth Elevation

Earthquake Activity

City Distance Mag. Time & Date
Minimum magnitude displayed is 2.5.

Coastal Water Temperatures

Place Temperature

Stations

Nearby Weather Stations

Station Location Temp. Windchill Dew Point Humidity Wind Precip. Elev Updated Type